User: anonymous   Login
Location: Unspecified
(0.0000°N, 0.0000°E)
Time: 05:18:01
(UTC+00:00)
Language:

Kosmos-1553 - Orbit

View from above orbital plane
View from above orbital plane
View from above satellite
View from above satellite

Ground track
Ground track

The orbit data is extracted from the following two-line orbital elements,

1 14973U 84046A   18233.01043421 +.00000044 +00000-0 +29858-4 0  9992
2 14973 082.9352 212.1999 0031513 330.5900 087.0906 13.75324137718957
Epoch (UTC): 21 August 2018 00:15:01
Eccentricity: 0.0031513
inclination: 82.9352°
perigee height: 957 km
apogee height: 1004 km
right ascension of ascending node: 212.1999°
argument of perigee: 330.5900°
revolutions per day: 13.75324137
mean anomaly at epoch: 87.0906°
orbit number at epoch: 71895

The dashed part of the orbit path shows where the satellite is in the earth's shadow,  

DLR